Sumburgh, United Kingdom

6:38 AM BST on April 28, 2017 (GMT +0100)
Sumburgh

Weather History for EGPB - October, 2013

Change the Weather History Date:

Thursday, October 31, 2013

  Actual Average Record
Temperature  
Mean Temperature 48 °F -  
Max Temperature 51 °F 45 °F 55 °F (2005)
Min Temperature 44 °F 41 °F 35 °F (2008)
Degree Days  
Heating Degree Days 18    
Moisture  
Dew Point 43 °F    
Average Humidity 79    
Maximum Humidity 87    
Minimum Humidity 71    
Precipitation  
Precipitation 0.00 in - - ()
Sea Level Pressure  
Sea Level Pressure 29.44 in    
Wind  
Wind Speed 22 mph ()    
Max Wind Speed 29 mph    
Max Gust Speed 39 mph    
Visibility 5.7 miles    
Events Rain    
Averages and records for this station are not official NWS values.
T = Trace of Precipitation, MM = Missing Value Source: Averaged Metar Reports

Daily Weather History Graph

Daily Weather History Graph

Search for Another Location

Airport or City:

Trip Planner

Search our weather history database for the weather conditions in past years. The results will help you decide how hot, cold, wet, or windy it might be!

Date:

Astronomy

Oct. 31, 2013 Rise Set
Actual Time 7:24 AM GMT 4:12 PM GMT
Civil Twilight 6:39 AM GMT 4:56 PM GMT
Nautical Twilight 5:50 AM GMT 5:45 PM GMT
Astronomical Twilight 5:02 AM GMT 6:33 PM GMT
Moon 3:12 AM GMT (10/31) 3:01 PM GMT (10/31)
Length of Visible Light 10h 17m
Length of Day
8h 47m
Waning Crescent, 11% of the Moon is Illuminated
Oct 31
Waning Crescent
Nov 3
New
Nov 10
First Quarter
Nov 17
Full
Nov 25
Last Quarter

Hourly Weather History & Observations

Time (GMT) Temp. Windchill Dew Point Humidity Pressure Visibility Wind Dir Wind Speed Gust Speed Precip Events Conditions
12:20 AM 50.0 °F - 42.8 °F 76% 29.50 in 6.2 mi WSW 25.3 mph - N/A   Partly Cloudy
12:50 AM 50.0 °F - 44.6 °F 82% 29.50 in 6.2 mi WSW 26.5 mph - N/A   Partly Cloudy
1:20 AM 50.0 °F - 42.8 °F 76% 29.50 in 6.2 mi SW 26.5 mph - N/A   Unknown
1:50 AM 50.0 °F - 42.8 °F 76% 29.50 in 6.2 mi SW 24.2 mph - N/A   Scattered Clouds
2:20 AM 50.0 °F - 42.8 °F 76% 29.53 in 6.2 mi WSW 28.8 mph - N/A   Unknown
2:50 AM 48.2 °F - 41.0 °F 76% 29.53 in 6.2 mi WSW 27.6 mph - N/A Rain Light Rain Showers
3:20 AM 50.0 °F - 42.8 °F 76% 29.53 in 6.2 mi WSW 25.3 mph - N/A   Unknown
3:50 AM 50.0 °F - 44.6 °F 82% 29.53 in 5.6 mi SW 24.2 mph - N/A   Unknown
4:20 AM 50.0 °F - 42.8 °F 76% 29.53 in 6.2 mi SW 25.3 mph - N/A   Partly Cloudy
4:50 AM 48.2 °F - 42.8 °F 82% 29.53 in 5.0 mi SW 19.6 mph - N/A   Partly Cloudy
5:20 AM 48.2 °F - 44.6 °F 87% 29.53 in 6.2 mi SSW 16.1 mph - N/A   Partly Cloudy
5:50 AM 50.0 °F - 42.8 °F 76% 29.50 in 5.6 mi SW 21.9 mph - N/A   Partly Cloudy
6:20 AM 48.2 °F - 42.8 °F 82% 29.50 in 6.2 mi SSW 18.4 mph - N/A   Partly Cloudy
6:50 AM 50.0 °F - 42.8 °F 76% 29.50 in 6.2 mi SSW 18.4 mph - N/A   Partly Cloudy
7:20 AM 50.0 °F - 42.8 °F 76% 29.50 in 6.2 mi SSW 19.6 mph - N/A   Partly Cloudy
7:50 AM 50.0 °F - 44.6 °F 82% 29.50 in 6.2 mi South 21.9 mph 33.4 mph N/A   Partly Cloudy
8:20 AM 50.0 °F - 44.6 °F 82% 29.50 in 6.2 mi South 20.7 mph - N/A   Partly Cloudy
8:50 AM 50.0 °F - 44.6 °F 82% 29.50 in 6.2 mi SSW 26.5 mph - N/A Rain Light Rain Showers
9:20 AM 50.0 °F - 44.6 °F 82% 29.47 in 6.2 mi SSW 27.6 mph - N/A   Scattered Clouds
9:50 AM 50.0 °F - 44.6 °F 82% 29.47 in 6.2 mi SSW 27.6 mph 39.1 mph N/A Rain Light Rain Showers
10:20 AM 50.0 °F - 42.8 °F 76% 29.47 in 6.2 mi SSW 26.5 mph - N/A   Scattered Clouds
10:50 AM 50.0 °F - 44.6 °F 82% 29.47 in 6.2 mi SSW 24.2 mph - N/A   Scattered Clouds
11:20 AM 51.8 °F - 44.6 °F 76% 29.47 in 6.2 mi SSW 20.7 mph - N/A   Scattered Clouds
11:50 AM 51.8 °F - 44.6 °F 76% 29.47 in 6.2 mi SSW 24.2 mph - N/A   Partly Cloudy
12:20 PM 51.8 °F - 42.8 °F 71% 29.44 in 6.2 mi SSW 23.0 mph - N/A   Scattered Clouds
12:50 PM 50.0 °F - 44.6 °F 82% 29.44 in 6.2 mi SSW 21.9 mph - N/A   Scattered Clouds
1:20 PM 50.0 °F - 44.6 °F 82% 29.44 in 6.2 mi SSW 23.0 mph - N/A   Scattered Clouds
1:50 PM 50.0 °F - 42.8 °F 76% 29.42 in 6.2 mi SSW 19.6 mph - N/A   Scattered Clouds
2:20 PM 50.0 °F - 42.8 °F 76% 29.42 in 6.2 mi SSW 23.0 mph - N/A   Scattered Clouds
2:50 PM 50.0 °F - 44.6 °F 82% 29.42 in 6.2 mi SSW 23.0 mph - N/A   Scattered Clouds
3:20 PM 50.0 °F - 44.6 °F 82% 29.39 in 6.2 mi SSW 23.0 mph - N/A   Scattered Clouds
3:50 PM 50.0 °F - 42.8 °F 76% 29.39 in 6.2 mi SSW 24.2 mph - N/A   Partly Cloudy
4:20 PM 50.0 °F - 42.8 °F 76% 29.39 in 6.2 mi SSW 23.0 mph - N/A   Scattered Clouds
4:50 PM 50.0 °F - 41.0 °F 71% 29.36 in 6.2 mi SW 25.3 mph - N/A   Scattered Clouds
5:20 PM 50.0 °F - 42.8 °F 76% 29.36 in 6.2 mi SW 21.9 mph - N/A   Scattered Clouds
5:50 PM 48.2 °F - 42.8 °F 82% 29.36 in 6.2 mi SW 20.7 mph - N/A   Scattered Clouds
6:20 PM 48.2 °F - 42.8 °F 82% 29.36 in 5.0 mi SW 18.4 mph - N/A   Scattered Clouds
6:50 PM 48.2 °F - 42.8 °F 82% 29.36 in 5.0 mi SW 21.9 mph - N/A   Scattered Clouds
7:20 PM 48.2 °F - 41.0 °F 76% 29.33 in 5.0 mi WSW 24.2 mph - N/A   Scattered Clouds
7:50 PM 46.4 °F 39.5 °F 41.0 °F 81% 29.36 in 6.2 mi WSW 17.3 mph - N/A   Scattered Clouds
8:20 PM 46.4 °F 37.7 °F 41.0 °F 81% 29.33 in 5.0 mi WSW 26.5 mph - N/A   Scattered Clouds
8:50 PM 44.6 °F 35.7 °F 41.0 °F 87% 29.36 in 2.8 mi WSW 24.2 mph - N/A Rain Rain Showers
9:20 PM 44.6 °F 37.8 °F 41.0 °F 87% 29.33 in 3.7 mi SW 15.0 mph - N/A   Unknown
9:50 PM 48.2 °F - 42.8 °F 82% 29.33 in 3.7 mi SW 24.2 mph - N/A   Partly Cloudy
10:20 PM 46.4 °F 38.5 °F 41.0 °F 81% 29.33 in 4.3 mi SW 21.9 mph - N/A   Unknown
10:50 PM 48.2 °F - 42.8 °F 82% 29.33 in 3.7 mi SW 21.9 mph - N/A   Unknown
11:20 PM 48.2 °F - 42.8 °F 82% 29.33 in 4.3 mi SSW 21.9 mph - N/A   Unknown
11:50 PM 46.4 °F 38.5 °F 41.0 °F 81% 29.33 in 6.2 mi SSW 21.9 mph - N/A   Unknown